TimeCDT,TemperatureF,Dew PointF,Humidity,Sea Level PressureIn,VisibilityMPH,Wind Direction,Wind SpeedMPH,Gust SpeedMPH,PrecipitationIn,Events,Conditions,WindDirDegrees,DateUTC
12:15 AM,71.4,46.4,41,29.92,10.0,SE,18.4,-,N/A,,Clear,140,2013-05-08 05:15:00
12:35 AM,69.8,47.1,44,29.91,10.0,SE,16.1,-,N/A,,Clear,130,2013-05-08 05:35:00
12:55 AM,68.2,47.5,47,29.92,10.0,ESE,15.0,-,N/A,,Clear,120,2013-05-08 05:55:00
1:15 AM,67.3,47.7,49,29.92,10.0,ESE,11.5,-,N/A,,Clear,120,2013-05-08 06:15:00
1:35 AM,66.4,47.8,51,29.91,10.0,ESE,12.7,-,N/A,,Clear,120,2013-05-08 06:35:00
1:55 AM,65.3,47.8,53,29.90,10.0,ESE,12.7,-,N/A,,Clear,120,2013-05-08 06:55:00
2:15 AM,65.7,47.7,52,29.89,10.0,SE,12.7,-,N/A,,Clear,130,2013-05-08 07:15:00
2:35 AM,66.2,47.3,51,29.89,10.0,SE,12.7,-,N/A,,Clear,140,2013-05-08 07:35:00
2:55 AM,66.0,46.9,50,29.89,10.0,SE,11.5,-,N/A,,Clear,140,2013-05-08 07:55:00
3:15 AM,66.2,46.8,50,29.88,10.0,SE,12.7,-,N/A,,Clear,140,2013-05-08 08:15:00
3:35 AM,66.2,46.8,50,29.88,10.0,SE,11.5,-,N/A,,Clear,130,2013-05-08 08:35:00
4:15 AM,61.7,48.2,61,29.87,10.0,ESE,11.5,-,N/A,,Clear,110,2013-05-08 09:15:00
4:35 AM,60.4,48.4,64,29.87,10.0,ESE,11.5,-,N/A,,Clear,120,2013-05-08 09:35:00
4:55 AM,59.9,48.4,66,29.88,10.0,ESE,9.2,-,N/A,,Clear,110,2013-05-08 09:55:00
5:15 AM,59.0,48.4,68,29.89,10.0,ESE,10.4,-,N/A,,Clear,110,2013-05-08 10:15:00
5:35 AM,58.3,48.4,70,29.89,10.0,ESE,10.4,-,N/A,,Clear,110,2013-05-08 10:35:00
5:55 AM,57.4,48.6,72,29.90,10.0,ESE,9.2,-,N/A,,Clear,110,2013-05-08 10:55:00
6:15 AM,57.2,48.6,73,29.90,10.0,ESE,9.2,-,N/A,,Clear,120,2013-05-08 11:15:00
6:35 AM,57.0,48.4,73,29.89,10.0,ESE,10.4,-,N/A,,Clear,120,2013-05-08 11:35:00
6:55 AM,57.2,48.6,73,29.90,10.0,ESE,10.4,-,N/A,,Clear,110,2013-05-08 11:55:00
7:15 AM,57.6,48.7,72,29.90,10.0,ESE,9.2,-,N/A,,Clear,120,2013-05-08 12:15:00
7:35 AM,58.8,49.1,70,29.90,10.0,ESE,8.1,-,N/A,,Clear,120,2013-05-08 12:35:00
7:55 AM,61.7,49.5,64,29.91,10.0,SE,8.1,-,N/A,,Clear,130,2013-05-08 12:55:00
8:15 AM,65.7,49.1,55,29.92,10.0,SSE,10.4,-,N/A,,Clear,150,2013-05-08 13:15:00
8:35 AM,68.9,49.1,49,29.92,10.0,SSE,12.7,-,N/A,,Clear,150,2013-05-08 13:35:00
8:55 AM,71.1,49.6,47,29.92,10.0,SSE,11.5,-,N/A,,Clear,160,2013-05-08 13:55:00
9:15 AM,72.7,50.0,45,29.92,10.0,South,11.5,18.4,N/A,,Clear,170,2013-05-08 14:15:00
9:35 AM,75.0,50.9,43,29.92,10.0,South,16.1,20.7,N/A,,Clear,180,2013-05-08 14:35:00
9:55 AM,76.5,52.0,42,29.92,10.0,South,17.3,20.7,N/A,,Clear,190,2013-05-08 14:55:00
10:15 AM,78.3,54.7,44,29.92,10.0,South,21.9,25.3,N/A,,Clear,190,2013-05-08 15:15:00
10:35 AM,78.8,55.2,44,29.92,10.0,SSW,17.3,25.3,N/A,,Clear,200,2013-05-08 15:35:00
10:55 AM,79.9,55.4,43,29.92,10.0,SSW,16.1,24.2,N/A,,Clear,200,2013-05-08 15:55:00
11:15 AM,81.3,56.1,42,29.92,10.0,South,17.3,21.9,N/A,,Clear,190,2013-05-08 16:15:00
11:35 AM,82.9,56.5,40,29.92,10.0,SSW,19.6,25.3,N/A,,Clear,200,2013-05-08 16:35:00
11:55 AM,83.7,56.1,39,29.91,10.0,South,18.4,23.0,N/A,,Clear,190,2013-05-08 16:55:00
12:15 PM,83.7,55.9,39,29.91,10.0,South,15.0,23.0,N/A,,Clear,190,2013-05-08 17:15:00
12:35 PM,85.5,55.9,36,29.90,10.0,South,15.0,24.2,N/A,,Clear,180,2013-05-08 17:35:00
12:55 PM,85.5,55.6,36,29.90,10.0,South,16.1,23.0,N/A,,Clear,170,2013-05-08 17:55:00
1:15 PM,86.4,56.3,36,29.88,10.0,South,17.3,23.0,N/A,,Clear,190,2013-05-08 18:15:00
1:35 PM,86.9,56.1,35,29.88,10.0,SSW,16.1,24.2,N/A,,Clear,200,2013-05-08 18:35:00
1:55 PM,87.1,56.3,35,29.87,10.0,South,18.4,24.2,N/A,,Clear,180,2013-05-08 18:55:00
2:15 PM,88.3,56.3,34,29.87,10.0,SSW,21.9,26.5,N/A,,Clear,200,2013-05-08 19:15:00
2:35 PM,88.7,56.3,33,29.86,10.0,SSW,16.1,-,N/A,,Clear,200,2013-05-08 19:35:00
2:55 PM,88.2,56.7,34,29.86,10.0,SSW,19.6,27.6,N/A,,Clear,210,2013-05-08 19:55:00
3:15 PM,87.3,56.3,35,29.85,10.0,SSW,18.4,25.3,N/A,,Clear,200,2013-05-08 20:15:00
3:35 PM,87.3,56.1,35,29.85,10.0,South,18.4,24.2,N/A,,Clear,180,2013-05-08 20:35:00
3:55 PM,88.0,56.1,34,29.84,10.0,South,19.6,32.2,N/A,,Clear,190,2013-05-08 20:55:00
4:15 PM,86.7,56.7,36,29.83,10.0,South,17.3,26.5,N/A,,Clear,180,2013-05-08 21:15:00
4:35 PM,86.2,57.2,37,29.82,10.0,South,18.4,24.2,N/A,,Scattered Clouds,180,2013-05-08 21:35:00
4:55 PM,86.9,56.7,36,29.79,10.0,South,20.7,27.6,N/A,,Clear,180,2013-05-08 21:55:00
5:15 PM,85.5,57.2,38,29.80,10.0,South,20.7,28.8,N/A,,Clear,190,2013-05-08 22:15:00
5:35 PM,84.0,58.1,41,29.81,10.0,South,23.0,28.8,N/A,,Clear,190,2013-05-08 22:35:00
5:55 PM,82.6,58.5,44,29.81,10.0,SSW,16.1,-,N/A,,Clear,200,2013-05-08 22:55:00
6:15 PM,82.2,58.3,44,29.82,10.0,SSW,15.0,-,N/A,,Clear,200,2013-05-08 23:15:00
6:35 PM,80.2,61.7,53,29.83,7.0,South,18.4,-,N/A,Rain-Thunderstorm,Thunderstorms and Rain,180,2013-05-08 23:35:00
6:55 PM,76.3,63.0,63,29.82,10.0,SE,9.2,18.4,N/A,Thunderstorm,Thunderstorm,140,2013-05-08 23:55:00
7:15 PM,77.0,61.9,59,29.80,10.0,ESE,6.9,-,N/A,,Clear,120,2013-05-09 00:15:00
7:35 PM,77.2,60.8,57,29.79,10.0,South,12.7,-,N/A,Thunderstorm,Clear,180,2013-05-09 00:35:00
7:55 PM,78.8,59.7,52,29.80,10.0,South,9.2,13.8,N/A,Thunderstorm,Clear,190,2013-05-09 00:55:00
8:15 PM,78.6,59.7,52,29.78,10.0,South,17.3,21.9,N/A,Rain,Light Rain,190,2013-05-09 01:15:00
8:35 PM,79.0,57.6,48,29.79,10.0,South,18.4,24.2,N/A,,Clear,170,2013-05-09 01:35:00
8:55 PM,77.7,60.1,54,29.78,10.0,SSE,17.3,25.3,N/A,,Clear,160,2013-05-09 01:55:00
9:15 PM,74.8,60.3,60,29.77,10.0,SSE,10.4,-,N/A,,Clear,150,2013-05-09 02:15:00
9:55 PM,75.2,59.9,59,29.81,10.0,South,16.1,-,N/A,,Clear,190,2013-05-09 02:55:00
10:15 PM,74.3,60.8,63,29.83,10.0,South,13.8,-,N/A,,Clear,180,2013-05-09 03:15:00
10:35 PM,73.9,60.6,63,29.85,10.0,South,9.2,-,N/A,,Clear,180,2013-05-09 03:35:00
11:55 PM,71.6,60.8,69,29.86,10.0,South,12.7,-,N/A,,Clear,170,2013-05-09 04:55:00